EW7119 Weather Reports


Display with metric or nautical units.
time (UTC)temp
F
wind
direction
speed
MPH
gust
MPH
rain 1hr
in
rain 24hr
in
rain mn
in
humidity
%
barometer
mb
20260507010109 29 153 1.0 3.0 0.02 0.27 0.27 84 1017.0
20260507004521 30 169 1.0 5.0 0.02 0.26 0.26 84 1016.7
20260507003132 30 227 2.0 4.0 0.03 0.26 0.26 82 1016.6
20260507001612 31 154 2.0 5.0 0.03 0.25 0.25 80 1016.6
20260507000110 31 174 2.0 5.0 0.04 0.25 0.25 79 1016.4
20260506234611 32 198 0.0 6.0 0.04 0.24 0.24 79 1016.2
20260506233119 32 270 0.0 7.0 0.04 0.23 0.23 82 1016.2
20260506231625 31 258 3.0 6.0 0.03 0.22 0.22 82 1016.2
20260506230106 31 189 3.0 8.0 0.03 0.21 0.21 82 1015.9
20260506224546 30 219 0.0 6.0 0.03 0.20 0.20 85 1015.6
20260506223056 30 169 1.0 4.0 0.02 0.19 0.19 83 1015.6
20260506221604 29 219 0.0 4.0 0.04 0.19 0.19 85 1015.7
20260506220110 29 209 1.0 3.0 0.04 0.18 0.18 85 1015.7
20260506214616 29 233 0.0 5.0 0.06 0.17 0.17 85 1015.7
20260506213012 29 239 0.0 7.0 0.06 0.16 0.16 85 1015.6
20260506211526 29 250 1.0 5.0 0.07 0.15 0.15 83 1015.4
20260506210033 30 173 2.0 8.0 0.07 0.14 0.14 82 1015.3
20260506204544 30 165 3.0 8.0 0.06 0.11 0.11 83 1015.4
20260506203053 29 227 1.0 6.0 0.08 0.10 0.10 86 1015.1
20260506201535 28 263 2.0 5.0 0.07 0.08 0.08 85 1015.2
20260506200053 28 264 2.0 6.0 0.06 0.07 0.07 85 1015.0
20260506194550 29 268 2.0 6.0 0.03 0.04 0.04 86 1014.9
20260506193044 28 240 2.0 7.0 0.01 0.02 0.02 86 1014.7
20260506191518 28 250 1.0 6.0 0.00 0.01 0.01 86 1014.7
20260506190022 28 155 2.0 6.0 0.01 0.01 0.01 86 1014.4
20260506184536 28 178 2.0 4.0 0.01 0.01 0.01 82 1014.4
20260506183030 28 184 2.0 5.0 0.01 0.01 0.01 86 1014.3
20260506181549 26 166 1.0 5.0 0.01 0.01 0.01 88 1014.3
20260506180040 26 251 2.0 5.0 0.00 0.00 0.00 86 1014.6
20260506174627 26 192 1.0 4.0 0.00 0.00 0.00 88 1014.4
20260506173044 25 321 1.0 3.0 0.00 0.00 0.00 88 1014.1
20260506171627 25 321 1.0 4.0 0.00 0.00 0.00 90 1013.8
20260506170130 24 84 0.0 4.0 0.00 0.00 0.00 91 1013.6
20260506164558 23 44 0.0 5.0 0.00 0.00 0.00 91 1013.3
20260506163102 22 319 2.0 6.0 0.00 0.00 0.00 91 1013.2
20260506161557 23 313 4.0 8.0 0.00 0.00 0.00 90 1012.7
20260506160112 24 319 2.0 5.0 0.00 0.00 0.00 90 1012.4
20260506154555 24 312 2.0 4.0 0.00 0.00 0.00 91 1012.1
20260506153102 25 298 1.0 3.0 0.00 0.00 0.00 91 1011.8
20260506151609 25 165 0.0 2.0 0.00 0.00 0.00 91 1011.4
20260506144612 24 223 1.0 7.0 0.00 0.00 0.00 91 1011.3
20260506143105 24 323 0.0 0.0 0.00 0.00 0.00 92 1011.2
20260506141614 24 323 0.0 0.0 0.00 0.00 0.00 92 1011.2
20260506140123 24 325 0.0 0.0 0.00 0.00 0.00 92 1010.9
20260506134632 23 325 0.0 0.0 0.00 0.00 0.00 92 1010.8
20260506133020 24 325 0.0 3.0 0.00 0.00 0.00 92 1010.8
20260506131537 23 331 0.0 0.0 0.00 0.00 0.00 92 1010.0
20260506130100 23 331 0.0 0.0 0.00 0.00 0.00 92 1010.0
20260506124540 23 331 0.0 0.0 0.00 0.00 0.00 92 1009.8
20260506123051 23 128 0.0 0.0 0.00 0.00 0.00 92 1009.5
20260506121607 23 128 0.0 2.0 0.00 0.00 0.00 92 1008.9
20260506120125 22 135 2.0 6.0 0.00 0.00 0.00 91 1008.5
20260506114612 22 69 2.0 8.0 0.00 0.00 0.00 91 1008.8
20260506113010 22 338 3.0 8.0 0.00 0.00 0.00 91 1008.9
20260506111515 23 318 1.0 4.0 0.00 0.00 0.00 92 1008.6
20260506110039 23 343 0.0 4.0 0.00 0.00 0.00 92 1008.3
20260506104551 23 304 1.0 3.0 0.00 0.00 0.00 92 1008.1
20260506103038 23 304 0.0 3.0 0.00 0.00 0.00 92 1008.0
20260506101550 24 309 0.0 2.0 0.00 0.00 0.00 92 1007.9
20260506100050 24 341 0.0 0.0 0.00 0.00 0.00 92 1007.7
20260506094551 24 341 0.0 0.0 0.00 0.00 0.00 92 1007.5
20260506093055 24 349 0.0 4.0 0.00 0.00 0.00 92 1007.5
20260506091553 24 327 0.0 4.0 0.00 0.00 0.00 92 1007.7
20260506090054 25 323 0.0 1.0 0.00 0.00 0.00 92 1007.6
20260506084548 25 67 1.0 4.0 0.00 0.00 0.00 92 1007.4
20260506083044 25 325 0.0 1.0 0.00 0.00 0.00 93 1007.4
20260506081524 25 312 1.0 3.0 0.00 0.00 0.00 92 1007.3
20260506073058 26 304 0.0 0.0 0.00 0.00 0.00 93 1007.0
20260506071558 26 304 0.0 0.0 0.00 0.00 0.00 93 1007.0
20260506070118 26 304 0.0 0.0 0.00 0.00 0.00 93 1006.9
20260506061616 27 304 0.0 0.0 0.00 0.00 0.00 93 1006.7
20260506050130 28 304 0.0 3.0 0.00 0.00 0.00 94 1005.9
20260506044522 28 247 1.0 4.0 0.00 0.00 0.00 93 1005.9
20260506043045 29 270 0.0 3.0 0.00 0.00 0.00 94 1005.7
20260506041521 29 263 0.0 0.0 0.00 0.00 0.00 94 1005.3
20260506040007 30 263 0.0 0.0 0.00 0.00 0.00 94 1005.0
20260506034622 30 263 0.0 2.0 0.00 0.00 0.00 94 1004.9
20260506033131 30 263 0.0 2.0 0.00 0.00 0.00 94 1004.9
20260506031604 30 172 2.0 4.0 0.00 0.00 0.00 94 1004.7
20260506030115 30 208 0.0 4.0 0.00 0.00 0.00 94 1004.4
20260506024616 30 261 1.0 3.0 0.00 0.00 0.00 94 1004.1
20260506023037 30 188 0.0 7.0 0.00 0.00 0.00 94 1003.7
20260506021523 30 263 0.0 0.0 0.00 0.00 0.00 94 1003.4
20260506020050 30 263 0.0 2.0 0.00 0.00 0.00 93 1003.2
20260506014603 30 263 0.0 2.0 0.00 0.00 0.00 93 1002.8
20260506013112 31 268 0.0 4.0 0.00 0.00 0.00 93 1002.5
20260506011604 31 315 0.0 0.0 0.00 0.00 0.00 93 1001.9